OCN4ML EDDM-ESGG

Flight info

Callsign OCN4ML
Flight time 1h 27m
Altitude 36000
Route EDDM/26L INPUD Y102 UPALA M726 LASGA DCT EMBOX DCT BUMIL/N0428F370 DCT MEGAR DCT ROKAM/N0429F360 L997 RISMA
Aircraft A320/M-SDE3FGHIRWY/LB1

Departure

Time 2026-05-04 09:07
Airport Munich Airport (EDDM)

Arrival

Time 2026-05-04 10:34
Airport Göteborg Landvetter Airport (ESGG)
Time Latitude Longitude Altitude Speed Heading
2026-05-04 08:52 48.35236 11.79341 1478 ft 0 kts 263°
2026-05-04 08:57 48.35243 11.79427 1477 ft 2 kts 263°
2026-05-04 09:01 48.35264 11.79488 1485 ft 0 kts 172°
2026-05-04 09:01 48.35262 11.79489 1485 ft 1 kts 172°
2026-05-04 09:01 48.35237 11.79499 1474 ft 7 kts 158°
2026-05-04 09:01 48.35171 11.79539 1481 ft 13 kts 158°
2026-05-04 09:02 48.35092 11.79584 1483 ft 11 kts 165°
2026-05-04 09:02 48.35021 11.79601 1474 ft 10 kts 156°
2026-05-04 09:02 48.34971 11.79660 1482 ft 9 kts 140°
2026-05-04 09:02 48.34917 11.79684 1479 ft 7 kts 173°
2026-05-04 09:03 48.34847 11.79695 1482 ft 13 kts 173°
2026-05-04 09:03 48.34811 11.79816 1475 ft 17 kts 83°
2026-05-04 09:03 48.34826 11.80017 1474 ft 21 kts 83°
2026-05-04 09:03 48.34786 11.80208 1471 ft 20 kts 135°
2026-05-04 09:04 48.34648 11.80257 1485 ft 22 kts 173°
2026-05-04 09:04 48.34581 11.80269 1472 ft 0 kts 173°
2026-05-04 09:04 48.34580 11.80269 1472 ft 1 kts 173°
2026-05-04 09:05 48.34538 11.80276 1485 ft 12 kts 173°
2026-05-04 09:05 48.34465 11.80213 1485 ft 12 kts 244°
2026-05-04 09:05 48.34452 11.80086 1485 ft 16 kts 265°
2026-05-04 09:05 48.34412 11.79570 1481 ft 88 kts 263°
2026-05-04 09:06 48.34317 11.78329 1486 ft 148 kts 263°
2026-05-04 09:07 48.34672 11.64797 5237 ft 252 kts 327°
2026-05-04 09:08 48.36327 11.63774 5747 ft 272 kts 348°
2026-05-04 09:08 48.38224 11.63349 6619 ft 280 kts 355°
2026-05-04 09:08 48.40187 11.63118 7553 ft 285 kts 355°
2026-05-04 09:08 48.42190 11.62893 8481 ft 291 kts 354°
2026-05-04 09:09 48.44224 11.62601 9446 ft 296 kts 352°
2026-05-04 09:09 48.46285 11.62230 10352 ft 301 kts 351°
2026-05-04 09:09 48.48373 11.61794 11214 ft 305 kts 349°
2026-05-04 09:09 48.50487 11.61314 12093 ft 310 kts 349°
2026-05-04 09:10 48.52637 11.60808 12973 ft 314 kts 348°
2026-05-04 09:10 48.54808 11.60288 13834 ft 319 kts 348°
2026-05-04 09:10 48.57011 11.59677 14613 ft 321 kts 342°
2026-05-04 09:10 48.59170 11.58555 15010 ft 339 kts 336°
2026-05-04 09:11 48.61436 11.57245 15368 ft 355 kts 336°
2026-05-04 09:11 48.63762 11.55881 16034 ft 361 kts 336°
2026-05-04 09:11 48.66123 11.54498 16777 ft 365 kts 336°
2026-05-04 09:11 48.68471 11.53130 17520 ft 368 kts 336°
2026-05-04 09:12 48.70875 11.51737 18293 ft 372 kts 336°
2026-05-04 09:12 48.73308 11.50331 18945 ft 375 kts 336°
2026-05-04 09:14 48.87453 11.42107 22513 ft 393 kts 336°
2026-05-04 09:14 48.95978 11.37131 24375 ft 402 kts 336°
2026-05-04 09:14 48.98594 11.35602 24910 ft 405 kts 336°
2026-05-04 09:15 49.01233 11.34056 25381 ft 408 kts 336°
2026-05-04 09:15 49.03888 11.32496 25887 ft 410 kts 336°
2026-05-04 09:15 49.06562 11.30921 26358 ft 413 kts 335°
2026-05-04 09:15 49.09254 11.29333 26832 ft 416 kts 335°
2026-05-04 09:17 49.32470 11.22260 30345 ft 449 kts 356°
2026-05-04 09:18 49.35644 11.22281 30704 ft 451 kts 356°
2026-05-04 09:18 49.38748 11.22299 31046 ft 453 kts 356°
2026-05-04 09:18 49.41910 11.22318 31393 ft 455 kts 356°
2026-05-04 09:18 49.45090 11.22339 31730 ft 459 kts 356°
2026-05-04 09:19 49.48289 11.22362 32139 ft 458 kts 356°
2026-05-04 09:19 49.51469 11.22387 32600 ft 458 kts 356°
2026-05-04 09:19 49.54657 11.22417 33054 ft 457 kts 356°
2026-05-04 09:19 49.57824 11.22442 33523 ft 456 kts 356°
2026-05-04 09:20 49.60991 11.22454 33991 ft 454 kts 356°
2026-05-04 09:20 49.64150 11.22459 34397 ft 454 kts 356°
2026-05-04 09:20 49.67312 11.22458 34803 ft 453 kts 356°
2026-05-04 09:20 49.70456 11.22457 35178 ft 452 kts 356°
2026-05-04 09:21 49.73602 11.22459 35530 ft 452 kts 356°
2026-05-04 09:21 49.76747 11.22463 35886 ft 452 kts 356°
2026-05-04 09:21 49.79894 11.22472 36021 ft 451 kts 356°
2026-05-04 09:21 49.83011 11.22489 36044 ft 446 kts 356°
2026-05-04 09:22 49.89189 11.22532 36046 ft 443 kts 356°
2026-05-04 09:22 49.95364 11.22576 36041 ft 443 kts 356°
2026-05-04 09:23 50.01489 11.22613 36035 ft 443 kts 356°
2026-05-04 09:23 50.07696 11.22647 36032 ft 443 kts 356°
2026-05-04 09:25 50.32265 11.22781 36036 ft 441 kts 356°
2026-05-04 09:26 50.38404 11.22861 36044 ft 442 kts 357°
2026-05-04 09:26 50.44565 11.23272 36036 ft 443 kts 359°
2026-05-04 09:27 50.50719 11.23803 36032 ft 443 kts 359°
2026-05-04 09:27 50.55827 11.24206 36030 ft 442 kts 358°
2026-05-04 09:28 50.61978 11.24638 36025 ft 442 kts 358°
2026-05-04 09:28 50.68131 11.25046 36036 ft 443 kts 358°
2026-05-04 09:29 50.74316 11.25467 36027 ft 443 kts 358°
2026-05-04 09:29 50.80475 11.25898 36037 ft 443 kts 358°
2026-05-04 09:30 50.86637 11.26341 36027 ft 443 kts 358°
2026-05-04 09:30 50.92762 11.26788 36017 ft 444 kts 358°
2026-05-04 09:31 50.98931 11.27219 36014 ft 444 kts 358°
2026-05-04 09:31 51.05107 11.27650 36029 ft 444 kts 358°
2026-05-04 09:32 51.11275 11.28084 36024 ft 444 kts 358°
2026-05-04 09:34 51.35992 11.29860 36016 ft 445 kts 358°
2026-05-04 09:34 51.42176 11.30311 36013 ft 445 kts 358°
2026-05-04 09:35 51.48369 11.30766 36012 ft 445 kts 358°
2026-05-04 09:35 51.54554 11.31220 36023 ft 445 kts 358°
2026-05-04 09:37 51.79337 11.33023 36029 ft 446 kts 358°
2026-05-04 09:38 51.85536 11.33481 36025 ft 447 kts 358°
2026-05-04 09:38 51.91755 11.33934 36022 ft 447 kts 358°
2026-05-04 09:39 51.97971 11.34397 36026 ft 447 kts 358°
2026-05-04 09:39 52.04192 11.34868 35996 ft 448 kts 358°
2026-05-04 09:40 52.10416 11.34981 36002 ft 446 kts 353°
2026-05-04 09:40 52.16611 11.34512 35993 ft 445 kts 352°
2026-05-04 09:42 52.41458 11.32872 35992 ft 447 kts 353°
2026-05-04 09:43 52.47677 11.32500 36002 ft 447 kts 352°
2026-05-04 09:43 52.53897 11.32122 35998 ft 447 kts 352°
2026-05-04 09:44 52.60117 11.31749 35995 ft 447 kts 353°
2026-05-04 09:46 52.84952 11.30251 35994 ft 447 kts 352°
2026-05-04 09:46 52.91176 11.29883 35988 ft 447 kts 353°
2026-05-04 09:47 52.97406 11.29510 35986 ft 447 kts 352°
2026-05-04 09:49 53.19176 11.30492 35976 ft 454 kts
2026-05-04 09:49 53.22289 11.31309 36010 ft 454 kts
2026-05-04 09:51 53.44123 11.37024 35985 ft 453 kts
2026-05-04 09:51 53.50337 11.38670 36003 ft 453 kts
2026-05-04 09:52 53.56569 11.40323 35992 ft 453 kts
2026-05-04 09:52 53.62793 11.41980 35986 ft 453 kts
2026-05-04 09:53 53.69010 11.43636 35974 ft 453 kts
2026-05-04 09:53 53.75251 11.45303 35983 ft 453 kts
2026-05-04 09:54 53.81486 11.46983 35968 ft 454 kts
2026-05-04 09:54 53.87727 11.48674 35966 ft 454 kts
2026-05-04 09:55 53.93966 11.50355 35961 ft 454 kts
2026-05-04 09:55 54.00218 11.52043 35977 ft 455 kts
2026-05-04 09:56 54.06477 11.53744 35975 ft 456 kts
2026-05-04 09:56 54.12741 11.55450 35967 ft 456 kts
2026-05-04 09:57 54.19008 11.57160 35962 ft 456 kts
2026-05-04 09:57 54.25245 11.58867 35972 ft 457 kts
2026-05-04 09:58 54.31525 11.60601 35967 ft 457 kts
2026-05-04 09:58 54.37811 11.62336 35957 ft 458 kts
2026-05-04 10:00 54.62978 11.69312 35968 ft 458 kts
2026-05-04 10:04 55.06916 11.81674 35970 ft 456 kts
2026-05-04 10:04 55.13184 11.83465 35961 ft 456 kts
2026-05-04 10:05 55.19393 11.85241 35954 ft 456 kts
2026-05-04 10:05 55.25648 11.87027 35969 ft 455 kts
2026-05-04 10:06 55.31895 11.88818 35960 ft 455 kts
2026-05-04 10:06 55.38136 11.90625 35954 ft 454 kts
2026-05-04 10:08 55.58912 11.96649 35924 ft 454 kts
2026-05-04 10:08 55.65181 11.98493 35924 ft 454 kts
2026-05-04 10:09 55.71378 12.00313 35931 ft 454 kts
2026-05-04 10:09 55.77622 12.02154 35945 ft 453 kts
2026-05-04 10:10 55.83859 12.03992 35938 ft 453 kts
2026-05-04 10:10 55.90072 12.05831 35932 ft 453 kts
2026-05-04 10:11 55.96304 12.07692 35932 ft 453 kts
2026-05-04 10:11 56.02512 12.09546 35953 ft 453 kts
2026-05-04 10:12 56.08728 12.11405 35935 ft 453 kts
2026-05-04 10:12 56.14910 12.13257 35922 ft 453 kts
2026-05-04 10:13 56.21133 12.15127 35883 ft 454 kts
2026-05-04 10:13 56.27389 12.17011 35891 ft 457 kts
2026-05-04 10:14 56.33583 12.17760 35906 ft 428 kts 348°
2026-05-04 10:16 56.54644 12.11951 31016 ft 448 kts 346°
2026-05-04 10:16 56.57712 12.11105 30397 ft 444 kts 346°
2026-05-04 10:16 56.60750 12.10266 29805 ft 439 kts 346°
2026-05-04 10:16 56.63754 12.09430 29144 ft 434 kts 346°
2026-05-04 10:17 56.66726 12.08596 28502 ft 430 kts 345°
2026-05-04 10:17 56.69682 12.07894 27861 ft 430 kts 353°
2026-05-04 10:19 56.90158 12.10848 23721 ft 410 kts 359°
2026-05-04 10:19 56.92992 12.11292 23122 ft 407 kts 359°
2026-05-04 10:19 56.95804 12.11705 22525 ft 403 kts 358°
2026-05-04 10:19 56.98589 12.12080 21959 ft 399 kts 358°
2026-05-04 10:20 57.01350 12.12430 21407 ft 396 kts 358°
2026-05-04 10:20 57.04086 12.12767 20878 ft 392 kts 358°
2026-05-04 10:20 57.06800 12.13105 20392 ft 389 kts 357°
2026-05-04 10:20 57.09491 12.13448 19901 ft 386 kts 357°
2026-05-04 10:21 57.12161 12.13793 19403 ft 383 kts 358°
2026-05-04 10:21 57.14811 12.14141 18925 ft 380 kts 357°
2026-05-04 10:21 57.17444 12.14487 18367 ft 380 kts 357°
2026-05-04 10:21 57.20092 12.14832 17693 ft 382 kts 358°
2026-05-04 10:22 57.25357 12.15525 16628 ft 377 kts 358°
2026-05-04 10:22 57.27966 12.15870 16129 ft 373 kts 358°
2026-05-04 10:22 57.30549 12.16214 15652 ft 371 kts 358°
2026-05-04 10:23 57.33118 12.16556 15165 ft 368 kts 358°
2026-05-04 10:23 57.35674 12.16893 14578 ft 369 kts 358°
2026-05-04 10:25 57.53220 12.19277 11340 ft 336 kts 359°
2026-05-04 10:25 57.55555 12.19596 11056 ft 328 kts 358°
2026-05-04 10:25 57.57803 12.19893 10773 ft 320 kts 358°
2026-05-04 10:25 57.59975 12.20179 10503 ft 313 kts 358°
2026-05-04 10:26 57.62132 12.20466 10255 ft 307 kts 358°
2026-05-04 10:26 57.64239 12.20748 9968 ft 298 kts 358°
2026-05-04 10:26 57.66280 12.21016 9612 ft 291 kts 358°
2026-05-04 10:26 57.68287 12.21229 9237 ft 287 kts 357°
2026-05-04 10:27 57.70274 12.21413 8858 ft 285 kts 357°
2026-05-04 10:27 57.72263 12.21589 8387 ft 286 kts 357°
2026-05-04 10:27 57.74247 12.21768 7967 ft 284 kts 357°
2026-05-04 10:27 57.76215 12.21947 7559 ft 282 kts 357°
2026-05-04 10:28 57.78167 12.22127 7149 ft 279 kts 357°
2026-05-04 10:28 57.80098 12.22464 6729 ft 281 kts
2026-05-04 10:28 57.81963 12.23628 6288 ft 286 kts 21°
2026-05-04 10:28 57.83697 12.25366 6105 ft 275 kts 24°
2026-05-04 10:29 57.85241 12.27370 5952 ft 267 kts 41°
2026-05-04 10:29 57.86309 12.30069 5855 ft 258 kts 60°
2026-05-04 10:29 57.86892 12.33321 5183 ft 272 kts 81°
2026-05-04 10:29 57.86740 12.36891 4434 ft 278 kts 111°
2026-05-04 10:30 57.85713 12.39806 4075 ft 258 kts 141°
2026-05-04 10:30 57.84293 12.41487 3995 ft 227 kts 165°
2026-05-04 10:30 57.82837 12.42058 3901 ft 206 kts 184°
2026-05-04 10:30 57.81455 12.41741 3614 ft 197 kts 203°
2026-05-04 10:31 57.80210 12.40722 3359 ft 194 kts 212°
2026-05-04 10:31 57.78997 12.39607 3093 ft 193 kts 212°
2026-05-04 10:32 57.72531 12.33689 1676 ft 141 kts 211°
2026-05-04 10:33 57.71672 12.32903 1473 ft 134 kts 211°
2026-05-04 10:33 57.70833 12.32134 1283 ft 134 kts 210°
2026-05-04 10:33 57.69986 12.31361 1086 ft 137 kts 208°
2026-05-04 10:33 57.69138 12.30586 894 ft 135 kts 208°
2026-05-04 10:34 57.68310 12.29829 716 ft 134 kts 209°
2026-05-04 10:34 57.67470 12.29066 541 ft 134 kts 210°
2026-05-04 10:34 57.66738 12.28384 512 ft 94 kts 206°
2026-05-04 10:34 57.66301 12.27993 510 ft 35 kts 205°
2026-05-04 10:35 57.66163 12.27935 509 ft 18 kts 156°
2026-05-04 10:35 57.66113 12.28056 509 ft 10 kts 115°
2026-05-04 10:35 57.66109 12.28165 509 ft 8 kts 53°
2026-05-04 10:35 57.66150 12.28205 510 ft 6 kts 24°
2026-05-04 10:36 57.66186 12.28235 510 ft 7 kts 24°
2026-05-04 10:36 57.66265 12.28309 511 ft 14 kts 26°
2026-05-04 10:36 57.66351 12.28387 511 ft 15 kts 26°
2026-05-04 10:36 57.66457 12.28486 512 ft 19 kts 26°
2026-05-04 10:37 57.66593 12.28607 512 ft 24 kts 25°
2026-05-04 10:37 57.66742 12.28744 513 ft 23 kts 26°
2026-05-04 10:37 57.66887 12.28876 513 ft 23 kts 26°
2026-05-04 10:37 57.67011 12.28988 514 ft 13 kts 27°
2026-05-04 10:39 57.66932 12.29466 516 ft 1 kts 116°